TimeCDT,TemperatureF,Dew PointF,Humidity,Sea Level PressureIn,VisibilityMPH,Wind Direction,Wind SpeedMPH,Gust SpeedMPH,PrecipitationIn,Events,Conditions,WindDirDegrees,DateUTC
12:15 AM,39.2,39.2,100,30.05,10.0,NNW,15.0,20.7,N/A,Rain,Light Rain,340,2013-04-24 05:15:00
12:35 AM,39.0,38.8,99,30.06,10.0,NNW,15.0,-,0.01,,Light Drizzle,330,2013-04-24 05:35:00
12:55 AM,38.8,38.7,99,30.07,10.0,North,12.7,-,0.01,Rain,Light Rain,350,2013-04-24 05:55:00
1:15 AM,38.7,38.5,99,30.06,10.0,NNW,11.5,-,N/A,Rain,Light Rain,340,2013-04-24 06:15:00
1:35 AM,38.7,38.5,99,30.04,10.0,North,15.0,18.4,N/A,Rain,Light Rain,350,2013-04-24 06:35:00
1:55 AM,38.3,38.1,99,30.04,10.0,North,12.7,-,N/A,Rain,Light Rain,350,2013-04-24 06:55:00
2:15 AM,38.3,38.1,99,30.04,10.0,North,11.5,-,N/A,Rain,Light Rain,350,2013-04-24 07:15:00
2:35 AM,38.3,38.3,100,30.05,10.0,North,9.2,-,N/A,Rain,Light Rain,350,2013-04-24 07:35:00
2:55 AM,38.5,38.3,99,30.05,10.0,NNW,8.1,-,N/A,,Overcast,330,2013-04-24 07:55:00
3:15 AM,38.3,38.3,100,30.06,10.0,NNW,11.5,-,N/A,Rain,Light Rain,330,2013-04-24 08:15:00
3:35 AM,37.8,37.6,99,30.07,7.0,NNW,10.4,-,0.01,Rain,Light Rain,330,2013-04-24 08:35:00
3:55 AM,37.8,37.6,99,30.07,7.0,NNW,4.6,-,0.02,Rain,Light Rain,340,2013-04-24 08:55:00
4:15 AM,37.8,37.6,99,30.07,7.0,North,4.6,-,N/A,,Light Drizzle,350,2013-04-24 09:15:00
4:35 AM,37.8,37.6,99,30.07,10.0,Calm,Calm,-,N/A,,Overcast,0,2013-04-24 09:35:00
4:55 AM,37.9,37.8,99,30.08,10.0,West,4.6,-,N/A,,Overcast,280,2013-04-24 09:55:00
5:15 AM,37.9,37.8,99,30.07,10.0,WNW,8.1,-,N/A,,Overcast,290,2013-04-24 10:15:00
5:35 AM,37.4,37.0,99,30.08,10.0,NW,10.4,-,N/A,,Overcast,310,2013-04-24 10:35:00
5:55 AM,37.0,36.9,99,30.08,10.0,NW,12.7,-,N/A,,Overcast,310,2013-04-24 10:55:00
6:15 AM,36.5,36.5,100,30.08,10.0,NW,12.7,-,N/A,,Overcast,310,2013-04-24 11:15:00
6:35 AM,36.5,36.5,100,30.09,10.0,NW,11.5,-,N/A,,Overcast,310,2013-04-24 11:35:00
6:55 AM,36.3,36.3,100,30.10,10.0,WNW,12.7,-,N/A,,Overcast,300,2013-04-24 11:55:00
7:15 AM,36.3,36.3,100,30.10,10.0,NW,12.7,-,N/A,,Overcast,310,2013-04-24 12:15:00
7:35 AM,37.2,36.9,99,30.10,10.0,NW,13.8,-,N/A,,Overcast,310,2013-04-24 12:35:00
7:55 AM,37.6,37.4,99,30.12,10.0,WNW,16.1,20.7,N/A,,Overcast,300,2013-04-24 12:55:00
8:15 AM,37.9,36.7,95,30.13,10.0,WNW,15.0,20.7,N/A,,Mostly Cloudy,300,2013-04-24 13:15:00
8:35 AM,38.3,33.4,83,30.14,10.0,NW,17.3,-,N/A,,Mostly Cloudy,310,2013-04-24 13:35:00
8:55 AM,38.8,33.3,80,30.14,10.0,WNW,15.0,-,N/A,,Overcast,300,2013-04-24 13:55:00
9:15 AM,39.9,34.0,79,30.15,10.0,WNW,18.4,-,N/A,,Overcast,290,2013-04-24 14:15:00
9:35 AM,41.4,34.9,78,30.15,10.0,NW,16.1,-,N/A,,Scattered Clouds,310,2013-04-24 14:35:00
9:55 AM,42.1,34.7,75,30.16,10.0,NW,15.0,20.7,N/A,,Clear,310,2013-04-24 14:55:00
10:15 AM,43.0,34.0,71,30.16,10.0,NW,13.8,21.9,N/A,,Clear,310,2013-04-24 15:15:00
10:35 AM,43.7,34.2,69,30.16,10.0,NW,19.6,-,N/A,,Scattered Clouds,310,2013-04-24 15:35:00
10:55 AM,43.9,32.9,65,30.16,10.0,NW,13.8,21.9,N/A,,Mostly Cloudy,310,2013-04-24 15:55:00
11:15 AM,43.9,32.5,64,30.16,10.0,WNW,15.0,19.6,N/A,,Mostly Cloudy,290,2013-04-24 16:15:00
11:35 AM,44.8,32.2,61,30.16,10.0,West,13.8,19.6,N/A,,Overcast,280,2013-04-24 16:35:00
11:55 AM,44.6,32.5,63,30.16,10.0,West,13.8,17.3,N/A,,Mostly Cloudy,280,2013-04-24 16:55:00
12:15 PM,45.3,30.9,57,30.17,10.0,NW,12.7,21.9,N/A,,Mostly Cloudy,310,2013-04-24 17:15:00
12:35 PM,45.5,31.8,59,30.16,10.0,NW,13.8,20.7,N/A,,Mostly Cloudy,320,2013-04-24 17:35:00
12:55 PM,46.9,32.5,57,30.16,10.0,WNW,11.5,20.7,N/A,,Scattered Clouds,300,2013-04-24 17:55:00
1:15 PM,47.5,31.6,54,30.16,10.0,West,4.6,11.5,N/A,,Scattered Clouds,270,2013-04-24 18:15:00
1:35 PM,47.7,33.1,57,30.17,10.0,WNW,9.2,-,N/A,,Scattered Clouds,290,2013-04-24 18:35:00
1:55 PM,48.6,32.9,55,30.16,10.0,West,8.1,17.3,N/A,,Scattered Clouds,270,2013-04-24 18:55:00
2:15 PM,48.4,33.1,56,30.16,10.0,West,11.5,-,N/A,,Scattered Clouds,280,2013-04-24 19:15:00
2:35 PM,49.3,32.4,52,30.16,10.0,WNW,10.4,18.4,N/A,,Scattered Clouds,290,2013-04-24 19:35:00
2:55 PM,50.5,33.8,53,30.16,10.0,WNW,13.8,18.4,N/A,,Scattered Clouds,300,2013-04-24 19:55:00
3:15 PM,50.7,33.4,52,30.16,10.0,West,11.5,16.1,N/A,,Scattered Clouds,280,2013-04-24 20:15:00
3:35 PM,51.1,32.2,48,30.16,10.0,West,11.5,16.1,N/A,,Clear,270,2013-04-24 20:35:00
3:55 PM,52.0,32.2,47,30.15,10.0,West,9.2,17.3,N/A,,Clear,260,2013-04-24 20:55:00
4:15 PM,52.3,31.8,46,30.16,10.0,West,12.7,-,N/A,,Clear,270,2013-04-24 21:15:00
4:35 PM,52.5,31.3,44,30.16,10.0,WSW,10.4,18.4,N/A,,Clear,250,2013-04-24 21:35:00
4:55 PM,52.3,32.4,47,30.16,10.0,WSW,10.4,18.4,N/A,,Clear,240,2013-04-24 21:55:00
5:15 PM,52.7,30.7,43,30.16,10.0,WSW,11.5,-,N/A,,Scattered Clouds,250,2013-04-24 22:15:00
5:35 PM,52.7,31.1,44,30.16,10.0,WSW,12.7,-,N/A,,Scattered Clouds,240,2013-04-24 22:35:00
5:55 PM,52.7,30.4,42,30.16,10.0,West,11.5,-,N/A,,Clear,260,2013-04-24 22:55:00
6:15 PM,52.5,31.3,44,30.16,10.0,WSW,12.7,-,N/A,,Clear,240,2013-04-24 23:15:00
6:35 PM,52.2,30.2,43,30.16,10.0,West,12.7,18.4,N/A,,Clear,260,2013-04-24 23:35:00
6:55 PM,51.8,31.8,47,30.15,10.0,WSW,16.1,-,N/A,,Clear,250,2013-04-24 23:55:00
7:15 PM,51.1,32.4,49,30.16,10.0,SW,10.4,-,N/A,,Clear,230,2013-04-25 00:15:00
7:35 PM,50.2,32.9,52,30.16,10.0,SW,9.2,-,N/A,,Clear,230,2013-04-25 00:35:00
7:55 PM,48.6,34.2,58,30.16,10.0,SW,6.9,-,N/A,,Clear,220,2013-04-25 00:55:00
8:15 PM,48.2,33.4,57,30.16,10.0,SSW,8.1,-,N/A,,Clear,210,2013-04-25 01:15:00
8:35 PM,47.7,33.1,57,30.17,10.0,SSW,6.9,-,N/A,,Clear,210,2013-04-25 01:35:00
8:55 PM,46.6,34.0,62,30.17,10.0,SSW,6.9,-,N/A,,Clear,200,2013-04-25 01:55:00
10:15 PM,45.7,34.2,64,30.19,10.0,SSW,9.2,-,N/A,,Clear,210,2013-04-25 03:15:00
10:35 PM,45.7,34.0,64,30.19,10.0,SW,9.2,-,N/A,,Clear,220,2013-04-25 03:35:00
10:55 PM,45.5,33.8,64,30.19,10.0,SW,10.4,-,N/A,,Clear,220,2013-04-25 03:55:00
11:15 PM,45.3,33.8,64,30.19,10.0,SW,10.4,-,N/A,,Clear,220,2013-04-25 04:15:00
11:35 PM,45.0,33.4,64,30.18,10.0,SW,11.5,-,N/A,,Clear,220,2013-04-25 04:35:00
11:55 PM,44.8,33.3,64,30.17,10.0,SSW,10.4,-,N/A,,Clear,210,2013-04-25 04:55:00